When you browse on this site, cookies collect data to enhance your experience and personalize the content and advertising you see.
Visit our Privacy Policy to learn more. By continuing to use the site, you agree to this use of cookies and data.
  • In Hungary
  • List of Countries
  • For 7 days
  • Water Temperature
  • Satellite Maps
  • Weather Map
  • News
  • Weather Widgets
  • user-avatar
    Login

    Hourly Weather Lucena

    Today, 21 November, Wednesday

    Time Temperature Precipitation Wind Pressure Humidity
    00:00 +9°C° 0.1 mm 2 mps 711 mmHg 92%
    01:00 +10°C° 0.2 mm 2 mps 711 mmHg 92%
    02:00 +10°C° 0.2 mm 2 mps 711 mmHg 92%
    03:00 +10°C° 0.2 mm 2 mps 711 mmHg 91%
    04:00 +10°C° 0.4 mm 2 mps 712 mmHg 91%
    05:00 +10°C° 0.4 mm 2 mps 712 mmHg 91%
    06:00 +11°C° 0.4 mm 1 mps 712 mmHg 91%
    07:00 +12°C° 0.1 mm 1 mps 712 mmHg 89%
    08:00 +12°C° 0.1 mm 1 mps 713 mmHg 87%
    09:00 +13°C° 0.1 mm 1 mps 713 mmHg 85%
    10:00 +13°C° 0.2 mm 2 mps 713 mmHg 79%
    11:00 +14°C° 0.2 mm 2 mps 713 mmHg 73%
    12:00 +14°C° 0.2 mm 3 mps 713 mmHg 67%
    13:00 +14°C° 0.4 mm 3 mps 713 mmHg 68%
    14:00 +14°C° 0.4 mm 3 mps 713 mmHg 68%
    15:00 +14°C° 0.4 mm 4 mps 713 mmHg 69%
    16:00 +13°C° 0.3 mm 3 mps 713 mmHg 74%
    17:00 +12°C° 0.3 mm 3 mps 714 mmHg 80%
    18:00 +12°C° 0.3 mm 2 mps 714 mmHg 85%
    19:00 +12°C° 0.1 mm 2 mps 714 mmHg 87%
    20:00 +12°C° 0.1 mm 2 mps 715 mmHg 88%
    21:00 +11°C° 0.1 mm 1 mps 715 mmHg 90%
    22:00 +11°C° 0 mm 1 mps 715 mmHg 90%
    23:00 +11°C° 0 mm 1 mps 715 mmHg 90%

    Tomorrow, 22 November, Thursday

    Time Temperature Precipitation Wind Pressure Humidity
    00:00 +11°C° 0 mm 1 mps 715 mmHg 90%
    01:00 +11°C° 0 mm 1 mps 715 mmHg 90%
    02:00 +10°C° 0 mm 1 mps 715 mmHg 90%
    03:00 +10°C° 0 mm 1 mps 715 mmHg 90%
    04:00 +10°C° 0 mm 1 mps 715 mmHg 90%
    05:00 +10°C° 0 mm 1 mps 715 mmHg 89%
    06:00 +10°C° 0 mm 1 mps 715 mmHg 89%
    07:00 +11°C° 0 mm 1 mps 715 mmHg 86%
    08:00 +11°C° 0 mm 1 mps 715 mmHg 82%
    09:00 +12°C° 0 mm 1 mps 715 mmHg 79%
    10:00 +13°C° 0 mm 1 mps 715 mmHg 73%
    11:00 +14°C° 0 mm 1 mps 715 mmHg 68%
    12:00 +15°C° 0 mm 2 mps 715 mmHg 62%
    13:00 +15°C° 1 mm 1 mps 715 mmHg 67%
    14:00 +14°C° 1 mm 1 mps 714 mmHg 73%
    15:00 +13°C° 1 mm 1 mps 714 mmHg 78%
    16:00 +13°C° 2.3 mm 1 mps 714 mmHg 82%
    17:00 +12°C° 2.3 mm 1 mps 714 mmHg 87%
    18:00 +11°C° 2.3 mm 1 mps 714 mmHg 91%
    19:00 +11°C° 0.8 mm 1 mps 715 mmHg 91%
    20:00 +11°C° 0.8 mm 1 mps 715 mmHg 91%
    21:00 +11°C° 0.8 mm 1 mps 715 mmHg 90%
    22:00 +11°C° 0.4 mm 1 mps 715 mmHg 90%
    23:00 +11°C° 0.4 mm 1 mps 715 mmHg 91%

    Day after tomorrow, 23 November, Friday

    Time Temperature Precipitation Wind Pressure Humidity
    00:00 +11°C° 0.4 mm 1 mps 715 mmHg 91%
    01:00 +11°C° 0.7 mm 1 mps 715 mmHg 92%
    02:00 +10°C° 0.7 mm 1 mps 715 mmHg 92%
    03:00 +10°C° 0.7 mm 1 mps 715 mmHg 92%
    04:00 +10°C° 0.4 mm 1 mps 715 mmHg 92%
    05:00 +9°C° 0.4 mm 0 mps 715 mmHg 92%
    06:00 +9°C° 0.4 mm 0 mps 715 mmHg 92%
    07:00 +9°C° 0.2 mm 0 mps 716 mmHg 89%
    08:00 +10°C° 0.2 mm 0 mps 716 mmHg 86%
    09:00 +11°C° 0.2 mm 1 mps 717 mmHg 83%
    10:00 +12°C° 0 mm 1 mps 717 mmHg 77%
    11:00 +13°C° 0 mm 1 mps 717 mmHg 70%
    12:00 +14°C° 0 mm 1 mps 717 mmHg 64%
    13:00 +14°C° 0 mm 2 mps 716 mmHg 63%
    14:00 +15°C° 0 mm 2 mps 716 mmHg 62%
    15:00 +14°C° 0 mm 3 mps 716 mmHg 61%
    16:00 +14°C° 0 mm 2 mps 716 mmHg 67%
    17:00 +13°C° 0 mm 2 mps 716 mmHg 72%
    18:00 +11°C° 0 mm 1 mps 716 mmHg 78%
    19:00 +11°C° 0 mm 1 mps 717 mmHg 80%
    20:00 +11°C° 0 mm 1 mps 717 mmHg 81%
    21:00 +9°C° 0 mm 0 mps 717 mmHg 83%
    22:00 +10°C° 0 mm 1 mps 717 mmHg 83%
    23:00 +10°C° 0 mm 1 mps 717 mmHg 83%

    24 November, Saturday

    Time Temperature Precipitation Wind Pressure Humidity
    00:00 +9°C° 0 mm 1 mps 717 mmHg 83%
    01:00 +9°C° 0 mm 1 mps 717 mmHg 84%
    02:00 +9°C° 0 mm 1 mps 717 mmHg 84%
    03:00 +9°C° 0 mm 1 mps 717 mmHg 84%
    04:00 +8°C° 0 mm 1 mps 716 mmHg 84%
    05:00 +8°C° 0 mm 1 mps 716 mmHg 84%
    06:00 +8°C° 0 mm 1 mps 716 mmHg 84%
    07:00 +9°C° 0 mm 1 mps 717 mmHg 80%
    08:00 +10°C° 0 mm 1 mps 717 mmHg 76%
    09:00 +11°C° 0 mm 1 mps 718 mmHg 72%
    10:00 +12°C° 0 mm 1 mps 717 mmHg 66%
    11:00 +13°C° 0 mm 1 mps 717 mmHg 61%
    12:00 +14°C° 0 mm 1 mps 717 mmHg 56%
    13:00 +14°C° 0 mm 1 mps 717 mmHg 54%
    14:00 +15°C° 0 mm 1 mps 716 mmHg 53%
    15:00 +15°C° 0 mm 1 mps 716 mmHg 51%
    16:00 +14°C° 0 mm 1 mps 716 mmHg 57%
    17:00 +12°C° 0 mm 0 mps 716 mmHg 63%
    18:00 +10°C° 0 mm 0 mps 716 mmHg 68%
    19:00 +10°C° 0 mm 0 mps 716 mmHg 70%
    20:00 +9°C° 0 mm 0 mps 716 mmHg 72%
    21:00 +9°C° 0 mm 0 mps 717 mmHg 74%
    22:00 +9°C° 0 mm 0 mps 717 mmHg 75%
    23:00 +8°C° 0 mm 0 mps 717 mmHg 76%

    25 November, Sunday

    Time Temperature Precipitation Wind Pressure Humidity
    00:00 +8°C° 0 mm 0 mps 717 mmHg 78%
    01:00 +9°C° 0 mm 1 mps 716 mmHg 79%
    02:00 +9°C° 0 mm 1 mps 716 mmHg 80%
    03:00 +8°C° 0 mm 1 mps 716 mmHg 81%
    04:00 +8°C° 0 mm 1 mps 716 mmHg 82%
    05:00 +8°C° 0 mm 1 mps 716 mmHg 83%
    06:00 +8°C° 0 mm 1 mps 716 mmHg 84%
    07:00 +9°C° 0 mm 1 mps 717 mmHg 80%
    08:00 +10°C° 0 mm 1 mps 717 mmHg 75%
    09:00 +11°C° 0 mm 1 mps 717 mmHg 70%
    10:00 +12°C° 0 mm 1 mps 717 mmHg 69%
    11:00 +12°C° 0 mm 1 mps 717 mmHg 68%
    12:00 +13°C° 0 mm 1 mps 717 mmHg 67%
    13:00 +13°C° 0.1 mm 1 mps 717 mmHg 70%
    14:00 +14°C° 0.1 mm 1 mps 716 mmHg 72%
    15:00 +14°C° 0.1 mm 1 mps 716 mmHg 75%
    16:00 +13°C° 0.1 mm 1 mps 716 mmHg 78%
    17:00 +13°C° 0.1 mm 1 mps 716 mmHg 81%
    18:00 +13°C° 0.1 mm 2 mps 716 mmHg 84%
    19:00 +13°C° 0.1 mm 2 mps 716 mmHg 84%
    20:00 +13°C° 0.1 mm 2 mps 716 mmHg 85%
    21:00 +12°C° 0.1 mm 3 mps 716 mmHg 85%
    22:00 +12°C° 0.5 mm 3 mps 716 mmHg 86%
    23:00 +12°C° 0.5 mm 3 mps 716 mmHg 88%

    26 November, Monday

    Time Temperature Precipitation Wind Pressure Humidity
    00:00 +12°C° 0.5 mm 3 mps 716 mmHg 89%
    01:00 +13°C° 0.6 mm 3 mps 715 mmHg 91%
    02:00 +13°C° 0.6 mm 3 mps 715 mmHg 93%
    03:00 +13°C° 0.6 mm 3 mps 715 mmHg 95%
    04:00 +13°C° 0.3 mm 3 mps 715 mmHg 95%
    05:00 +13°C° 0.3 mm 3 mps 715 mmHg 95%
    06:00 +12°C° 0.3 mm 3 mps 716 mmHg 96%
    07:00 +12°C° 0.1 mm 3 mps 716 mmHg 91%
    08:00 +12°C° 0.1 mm 3 mps 717 mmHg 87%
    09:00 +12°C° 0.1 mm 3 mps 717 mmHg 83%
    10:00 +12°C° 0 mm 3 mps 718 mmHg 73%
    11:00 +12°C° 0 mm 3 mps 718 mmHg 63%
    12:00 +13°C° 0 mm 3 mps 718 mmHg 53%
    13:00 +13°C° 0 mm 3 mps 718 mmHg 50%
    14:00 +14°C° 0 mm 2 mps 718 mmHg 46%
    15:00 +14°C° 0 mm 2 mps 718 mmHg 43%
    16:00 +13°C° 0 mm 2 mps 718 mmHg 48%
    17:00 +12°C° 0 mm 2 mps 718 mmHg 53%
    18:00 +10°C° 0 mm 1 mps 718 mmHg 58%
    19:00 +10°C° 0 mm 1 mps 719 mmHg 60%
    20:00 +10°C° 0 mm 1 mps 719 mmHg 62%
    21:00 +10°C° 0 mm 1 mps 719 mmHg 64%
    22:00 +9°C° 0 mm 1 mps 719 mmHg 65%
    23:00 +9°C° 0 mm 1 mps 719 mmHg 65%
    Show more